Weather History for KCIU - December, 2013

Change the Weather History Date:

Sunday, December 15, 2013

  Actual Average Record
Temperature  
Mean Temperature 5 °F -  
Max Temperature 10 °F 32 °F 43 °F (1993)
Min Temperature -2 °F 14 °F -10 °F (1989)
Degree Days  
Heating Degree Days 60    
Moisture  
Dew Point 3 °F    
Average Humidity 90    
Maximum Humidity 100    
Minimum Humidity 85    
Precipitation  
Precipitation 0.00 in - - ()
Sea Level Pressure  
Sea Level Pressure 29.79 in    
Wind  
Wind Speed 6 mph (NE)    
Max Wind Speed 9 mph    
Max Gust Speed -    
Visibility 6 miles    
Events      
Averages and records for this station are not official NWS values.
T = Trace of Precipitation, MM = Missing Value Source: NWS Daily Summary

Daily Weather History Graph

Daily Weather History Graph

Search for Another Location

Airport or City:

Trip Planner

Search our weather history database for the weather conditions in past years. The results will help you decide how hot, cold, wet, or windy it might be!

Date:

Astronomy

Dec. 15, 2013 Rise Set
Actual Time 8:14 AM EST 4:52 PM EST
Civil Twilight 7:39 AM EST 5:27 PM EST
Nautical Twilight 7:01 AM EST 6:05 PM EST
Astronomical Twilight 6:24 AM EST 6:41 PM EST
Moon 3:59 PM EST (12/15) 6:25 AM EST (12/15)
Length of Visible Light 9h 47m
Length of Day
8h 37m
Waxing Gibbous, 97% of the Moon is Illuminated
Dec 15
Waxing Gibbous
Dec 17
Full
Dec 25
Last Quarter
Jan 1
New
Jan 7
First Quarter

Hourly Weather History & Observations

Time (EST) Temp. Windchill Dew Point Humidity Pressure Visibility Wind Dir Wind Speed Gust Speed Precip Events Conditions
12:15 AM 3.2 °F -6.2 °F 1.4 °F 92% 29.91 in 10.0 mi ENE 4.6 mph - N/A   Overcast
12:35 AM 3.2 °F -10.3 °F 1.4 °F 92% 29.90 in 10.0 mi ENE 8.1 mph - N/A   Overcast
12:55 AM 5.0 °F -5.6 °F 1.4 °F 85% 29.90 in 10.0 mi ENE 5.8 mph - N/A   Overcast
1:15 AM 5.0 °F -6.9 °F 1.4 °F 85% 29.88 in 8.0 mi ENE 6.9 mph - N/A   Overcast
1:35 AM 5.0 °F -8.1 °F 1.4 °F 85% 29.87 in 9.0 mi ENE 8.1 mph - N/A   Overcast
1:55 AM 3.2 °F -10.3 °F 1.4 °F 92% 29.86 in 10.0 mi ENE 8.1 mph - N/A   Overcast
2:15 AM 3.2 °F -7.8 °F 1.4 °F 92% 29.85 in 10.0 mi East 5.8 mph - N/A   Overcast
2:35 AM 5.0 °F -6.9 °F 1.4 °F 85% 29.85 in 8.0 mi East 6.9 mph - N/A   Overcast
2:55 AM 5.0 °F -6.9 °F 3.2 °F 92% 29.84 in 10.0 mi ENE 6.9 mph - N/A   Overcast
3:15 AM 5.0 °F -8.1 °F 3.2 °F 92% 29.84 in 10.0 mi ENE 8.1 mph - N/A   Overcast
3:35 AM 5.0 °F -6.9 °F 3.2 °F 92% 29.83 in 8.0 mi East 6.9 mph - N/A   Overcast
3:55 AM 5.0 °F -6.9 °F 3.2 °F 92% 29.82 in 7.0 mi ENE 6.9 mph - N/A   Overcast
4:15 AM 5.0 °F -6.9 °F 3.2 °F 92% 29.80 in 5.0 mi East 6.9 mph - N/A   Overcast
4:35 AM 5.0 °F -6.9 °F 3.2 °F 92% 29.79 in 6.0 mi East 6.9 mph - N/A   Overcast
4:55 AM 5.0 °F -8.1 °F 3.2 °F 92% 29.78 in 4.0 mi East 8.1 mph - N/A   Overcast
5:15 AM 5.0 °F -6.9 °F 3.2 °F 92% 29.78 in 4.0 mi ENE 6.9 mph - N/A   Overcast
5:35 AM 5.0 °F -8.1 °F 3.2 °F 92% 29.77 in 5.0 mi ENE 8.1 mph - N/A   Overcast
5:55 AM 5.0 °F -8.1 °F 3.2 °F 92% 29.77 in 5.0 mi ENE 8.1 mph - N/A   Overcast
6:15 AM 5.0 °F -6.9 °F 3.2 °F 92% 29.76 in 5.0 mi East 6.9 mph - N/A   Overcast
6:35 AM 5.0 °F -6.9 °F 3.2 °F 92% 29.77 in 4.0 mi East 6.9 mph - N/A   Overcast
6:55 AM 5.0 °F -9.1 °F 3.2 °F 92% 29.76 in 4.0 mi East 9.2 mph - N/A   Overcast
7:15 AM 5.0 °F -9.1 °F 3.2 °F 92% 29.75 in 3.0 mi ENE 9.2 mph - N/A   Overcast
7:35 AM 5.0 °F -8.1 °F 3.2 °F 92% 29.75 in 2.5 mi ENE 8.1 mph - N/A   Overcast
7:55 AM 5.0 °F -8.1 °F 3.2 °F 92% 29.74 in 3.0 mi ENE 8.1 mph - N/A   Overcast
8:15 AM 5.0 °F -8.1 °F 3.2 °F 92% 29.74 in 2.0 mi ENE 8.1 mph - N/A   Overcast
8:35 AM 3.2 °F -11.3 °F 3.2 °F 100% 29.73 in 1.8 mi East 9.2 mph - N/A   Overcast
8:55 AM 5.0 °F -8.1 °F 3.2 °F 92% 29.73 in 1.8 mi ENE 8.1 mph - N/A   Overcast
9:15 AM 5.0 °F -9.1 °F 3.2 °F 92% 29.73 in 1.8 mi ENE 9.2 mph - N/A   Overcast
9:35 AM 5.0 °F -9.1 °F 3.2 °F 92% 29.73 in 1.8 mi ENE 9.2 mph - N/A   Overcast
9:55 AM 5.0 °F -8.1 °F 3.2 °F 92% 29.73 in 1.2 mi ENE 8.1 mph - N/A   Overcast
10:15 AM 5.0 °F -8.1 °F 3.2 °F 92% 29.72 in 1.0 mi ENE 8.1 mph - N/A   Overcast
10:35 AM 5.0 °F -8.1 °F 3.2 °F 92% 29.72 in 1.2 mi ENE 8.1 mph - N/A   Overcast
10:55 AM 6.8 °F -6.9 °F 3.2 °F 85% 29.72 in 2.0 mi NE 9.2 mph - N/A   Overcast
11:15 AM 6.8 °F -5.9 °F 3.2 °F 85% 29.72 in 1.2 mi ENE 8.1 mph - N/A   Overcast
11:35 AM 6.8 °F -5.9 °F 3.2 °F 85% 29.71 in 1.0 mi NE 8.1 mph - N/A   Overcast
11:55 AM 6.8 °F -2.0 °F 3.2 °F 85% 29.71 in 1.8 mi NE 4.6 mph - N/A   Overcast
12:15 PM 6.8 °F -4.8 °F 3.2 °F 85% 29.70 in 1.8 mi NE 6.9 mph - N/A   Overcast
12:35 PM 8.6 °F 2.0 °F 5.0 °F 85% 29.70 in 1.2 mi NE 3.5 mph - N/A   Overcast
12:55 PM 8.6 °F 2.0 °F 5.0 °F 85% 29.69 in 1.8 mi NNE 3.5 mph - N/A   Overcast
1:15 PM 8.6 °F 0.1 °F 5.0 °F 85% 29.69 in 3.0 mi ENE 4.6 mph - N/A   Overcast
1:35 PM 10.4 °F 2.2 °F 6.8 °F 85% 29.69 in 3.0 mi North 4.6 mph - N/A   Overcast
1:55 PM 10.4 °F 0.8 °F 6.8 °F 85% 29.69 in 5.0 mi North 5.8 mph - N/A   Mostly Cloudy
2:15 PM 10.4 °F 2.2 °F 6.8 °F 85% 29.70 in 2.5 mi North 4.6 mph - N/A   Mostly Cloudy
2:35 PM 10.4 °F 4.0 °F 6.8 °F 85% 29.70 in 2.0 mi North 3.5 mph - N/A   Overcast
2:55 PM 10.4 °F 2.2 °F 6.8 °F 85% 29.70 in 5.0 mi NE 4.6 mph - N/A   Mostly Cloudy
3:15 PM 10.4 °F 0.8 °F 6.8 °F 85% 29.71 in 8.0 mi NNE 5.8 mph - N/A   Mostly Cloudy
3:35 PM 10.4 °F 0.8 °F 6.8 °F 85% 29.72 in 5.0 mi NNE 5.8 mph - N/A   Overcast
3:55 PM 10.4 °F 4.0 °F 6.8 °F 85% 29.73 in 4.0 mi NE 3.5 mph - N/A   Overcast
4:15 PM 10.4 °F - 6.8 °F 85% 29.74 in 10.0 mi Calm Calm - N/A   Scattered Clouds
4:35 PM 8.6 °F - 6.8 °F 92% 29.75 in 10.0 mi Calm Calm - N/A   Mostly Cloudy
4:55 PM 8.6 °F - 6.8 °F 92% 29.76 in 10.0 mi Calm Calm - N/A   Overcast
5:15 PM 8.6 °F - 6.8 °F 92% 29.77 in 9.0 mi Calm Calm - N/A   Overcast
5:35 PM 8.6 °F - 6.8 °F 92% 29.78 in 2.5 mi Calm Calm - N/A   Overcast
5:55 PM 8.6 °F - 6.8 °F 92% 29.79 in 1.5 mi Calm Calm - N/A   Overcast
6:15 PM 10.4 °F 2.2 °F 8.6 °F 92% 29.80 in 3.0 mi North 4.6 mph - N/A   Overcast
6:35 PM 10.4 °F -0.4 °F 6.8 °F 85% 29.81 in 3.0 mi NNE 6.9 mph - N/A   Overcast
6:55 PM 8.6 °F 0.1 °F 6.8 °F 92% 29.82 in 9.0 mi NNE 4.6 mph - N/A   Overcast
7:15 PM 8.6 °F 0.1 °F 6.8 °F 92% 29.83 in 7.0 mi North 4.6 mph - N/A   Overcast
7:35 PM 8.6 °F -1.3 °F 6.8 °F 92% 29.84 in 5.0 mi North 5.8 mph - N/A   Mostly Cloudy
7:55 PM 8.6 °F -1.3 °F 6.8 °F 92% 29.85 in 7.0 mi North 5.8 mph - N/A   Overcast
8:15 PM 6.8 °F -2.0 °F 5.0 °F 92% 29.85 in 10.0 mi North 4.6 mph - N/A   Scattered Clouds
8:35 PM 6.8 °F -3.5 °F 3.2 °F 85% 29.86 in 10.0 mi NNE 5.8 mph - N/A   Scattered Clouds
8:55 PM 3.2 °F -6.2 °F 1.4 °F 92% 29.87 in 10.0 mi North 4.6 mph - N/A   Partly Cloudy
9:15 PM 3.2 °F -9.1 °F 1.4 °F 92% 29.88 in 10.0 mi North 6.9 mph - N/A   Clear
9:35 PM 3.2 °F -9.1 °F -0.4 °F 85% 29.89 in 10.0 mi North 6.9 mph - N/A   Clear
9:55 PM 1.4 °F -11.3 °F -0.4 °F 92% 29.91 in 10.0 mi North 6.9 mph - N/A   Clear
10:15 PM 1.4 °F -11.3 °F -0.4 °F 92% 29.92 in 10.0 mi North 6.9 mph - N/A   Clear
10:35 PM -0.4 °F -13.4 °F -2.2 °F 92% 29.93 in 10.0 mi North 6.9 mph - N/A   Clear
10:55 PM -0.4 °F -13.4 °F -2.2 °F 92% 29.93 in 10.0 mi North 6.9 mph - N/A   Clear
11:15 PM -0.4 °F -13.4 °F -2.2 °F 92% 29.95 in 10.0 mi North 6.9 mph - N/A   Clear
11:35 PM -0.4 °F -15.7 °F -4.0 °F 85% 29.95 in 10.0 mi North 9.2 mph - N/A   Clear
11:55 PM -2.2 °F -16.8 °F -5.8 °F 85% 29.96 in 10.0 mi NNE 8.1 mph - N/A   Clear